Change the Weather History Date:

Sunday, November 25, 2012

  Actual Average (KLJF) Record (KLJF)
Temperature  
Mean Temperature 28 °F -  
Max Temperature 33 °F 34 °F 59 °F (1960)
Min Temperature 21 °F 18 °F -13 °F (1977)
Degree Days  
Heating Degree Days 37    
Moisture  
Dew Point 20 °F    
Average Humidity 70    
Maximum Humidity 80    
Minimum Humidity 54    
Precipitation  
Precipitation 0.00 in - - ()
Sea Level Pressure  
Sea Level Pressure 30.00 in    
Wind  
Wind Speed 13 mph (NW)    
Max Wind Speed 22 mph    
Max Gust Speed 26 mph    
Visibility 10 miles    
Events      
Averages and records for this station are not official NWS values.
T = Trace of Precipitation, MM = Missing Value Source: NWS Daily Summary

Daily Weather History Graph

Daily Weather History Graph

Search for Another Location

Airport or City:

Trip Planner

Search our weather history database for the weather conditions in past years. The results will help you decide how hot, cold, wet, or windy it might be!

Date:

Astronomy

Nov. 25, 2012 Rise Set
Actual Time 7:32 AM CST 4:42 PM CST
Civil Twilight 6:59 AM CST 5:15 PM CST
Nautical Twilight 6:23 AM CST 5:51 PM CST
Astronomical Twilight 5:47 AM CST 6:27 PM CST
Moon 3:04 PM CST (11/25) 4:41 AM CST (11/25)
Length of Visible Light 10h 15m
Length of Day
9h 10m
Waxing Gibbous, 93% of the Moon is Illuminated
Nov 25
Waxing Gibbous
Nov 28
Full
Dec 6
Last Quarter
Dec 13
New
Dec 19
First Quarter

Hourly Weather History & Observations

Time (CST) Temp. Windchill Dew Point Humidity Pressure Visibility Wind Dir Wind Speed Gust Speed Precip Events Conditions
12:15 AM 28.4 °F 22.2 °F 19.4 °F 69% 29.83 in 10.0 mi WNW 5.8 mph - N/A   Clear
12:35 AM 28.4 °F 22.2 °F 19.4 °F 69% 29.83 in 10.0 mi WNW 5.8 mph - N/A   Clear
12:55 AM 26.6 °F 21.2 °F 19.4 °F 74% 29.84 in 10.0 mi WNW 4.6 mph - N/A   Clear
1:15 AM 26.6 °F 20.0 °F 19.4 °F 74% 29.84 in 10.0 mi NW 5.8 mph - N/A   Mostly Cloudy
1:35 AM 30.2 °F 20.2 °F 24.8 °F 80% 29.84 in 10.0 mi NNW 12.7 mph - N/A   Overcast
1:55 AM 32.0 °F 19.5 °F 24.8 °F 75% 29.85 in 10.0 mi NNW 21.9 mph 26.5 mph N/A   Overcast
2:16 AM 30.2 °F 18.1 °F 24.8 °F 80% 29.87 in 10.0 mi NNW 18.4 mph - N/A   Overcast
2:35 AM 30.2 °F 17.1 °F 24.8 °F 80% 29.88 in 10.0 mi NNW 21.9 mph - N/A   Overcast
2:55 AM 30.2 °F 18.5 °F 24.8 °F 80% 29.89 in 10.0 mi NW 17.3 mph 23.0 mph N/A   Overcast
3:16 AM 30.2 °F 17.1 °F 24.8 °F 80% 29.88 in 10.0 mi NNW 21.9 mph - N/A   Overcast
3:35 AM 30.2 °F 18.1 °F 24.8 °F 80% 29.89 in 10.0 mi NW 18.4 mph 21.9 mph N/A   Overcast
3:55 AM 30.2 °F 18.1 °F 24.8 °F 80% 29.90 in 10.0 mi NW 18.4 mph 24.2 mph N/A   Overcast
4:16 AM 30.2 °F 20.8 °F 24.8 °F 80% 29.90 in 10.0 mi NNW 11.5 mph - N/A   Overcast
4:35 AM 30.2 °F 18.1 °F 24.8 °F 80% 29.90 in 10.0 mi NNW 18.4 mph 25.3 mph N/A   Overcast
4:55 AM 30.2 °F 18.9 °F 24.8 °F 80% 29.91 in 10.0 mi NNW 16.1 mph - N/A   Overcast
5:16 AM 30.2 °F 19.3 °F 24.8 °F 80% 29.92 in 10.0 mi NW 15.0 mph - N/A   Overcast
5:35 AM 28.4 °F 17.0 °F 23.0 °F 80% 29.92 in 10.0 mi NW 15.0 mph - N/A   Overcast
5:55 AM 28.4 °F 18.0 °F 23.0 °F 80% 29.93 in 10.0 mi NW 12.7 mph - N/A   Overcast
6:15 AM 28.4 °F 17.0 °F 21.2 °F 74% 29.94 in 10.0 mi NW 15.0 mph - N/A   Overcast
6:35 AM 28.4 °F 18.0 °F 23.0 °F 80% 29.94 in 10.0 mi NW 12.7 mph - N/A   Overcast
6:55 AM 28.4 °F 18.0 °F 21.2 °F 74% 29.95 in 10.0 mi NW 12.7 mph - N/A   Overcast
7:15 AM 26.6 °F 15.7 °F 21.2 °F 80% 29.96 in 10.0 mi WNW 12.7 mph 18.4 mph N/A   Overcast
7:35 AM 26.6 °F 15.2 °F 21.2 °F 80% 29.97 in 10.0 mi NW 13.8 mph - N/A   Overcast
7:55 AM 26.6 °F 16.2 °F 21.2 °F 80% 29.97 in 10.0 mi WNW 11.5 mph - N/A   Overcast
8:15 AM 26.6 °F 16.2 °F 21.2 °F 80% 29.97 in 10.0 mi NW 11.5 mph 17.3 mph N/A   Overcast
8:35 AM 26.6 °F 14.7 °F 19.4 °F 74% 29.98 in 10.0 mi NW 15.0 mph - N/A   Overcast
8:55 AM 26.6 °F 15.7 °F 19.4 °F 74% 29.98 in 10.0 mi NW 12.7 mph 18.4 mph N/A   Overcast
9:15 AM 26.6 °F 16.2 °F 19.4 °F 74% 29.99 in 10.0 mi NW 11.5 mph - N/A   Overcast
9:35 AM 26.6 °F 13.8 °F 19.4 °F 74% 29.99 in 10.0 mi NW 17.3 mph - N/A   Overcast
9:55 AM 26.6 °F 13.4 °F 19.4 °F 74% 30.01 in 10.0 mi NW 18.4 mph 24.2 mph N/A   Overcast
10:15 AM 26.6 °F 14.7 °F 19.4 °F 74% 30.01 in 10.0 mi NW 15.0 mph - N/A   Overcast
10:35 AM 26.6 °F 15.7 °F 19.4 °F 74% 30.01 in 10.0 mi WNW 12.7 mph - N/A   Overcast
10:55 AM 28.4 °F 19.1 °F 19.4 °F 69% 30.01 in 10.0 mi WNW 10.4 mph - N/A   Mostly Cloudy
11:15 AM 28.4 °F 16.6 °F 19.4 °F 69% 30.01 in 10.0 mi WNW 16.1 mph 20.7 mph N/A   Overcast
11:35 AM 28.4 °F 16.2 °F 19.4 °F 69% 30.01 in 10.0 mi WNW 17.3 mph 24.2 mph N/A   Overcast
11:55 AM 28.4 °F 17.0 °F 21.2 °F 74% 30.01 in 10.0 mi NW 15.0 mph - N/A   Overcast
12:15 PM 28.4 °F 17.5 °F 21.2 °F 74% 30.00 in 10.0 mi WNW 13.8 mph - N/A   Overcast
12:36 PM 30.2 °F 21.3 °F 21.2 °F 69% 30.00 in 10.0 mi West 10.4 mph - N/A   Overcast
12:55 PM 30.2 °F 20.2 °F 21.2 °F 69% 29.99 in 10.0 mi NW 12.7 mph - N/A   Overcast
1:15 PM 30.2 °F 21.3 °F 21.2 °F 69% 29.99 in 10.0 mi WNW 10.4 mph - N/A   Overcast
1:36 PM 32.0 °F 21.6 °F 21.2 °F 64% 29.99 in 10.0 mi NW 15.0 mph - N/A   Overcast
1:55 PM 32.0 °F 21.6 °F 21.2 °F 64% 29.99 in 10.0 mi NW 15.0 mph - N/A   Overcast
2:15 PM 30.2 °F 19.3 °F 21.2 °F 69% 30.00 in 10.0 mi WNW 15.0 mph - N/A   Overcast
2:36 PM 33.8 °F 24.8 °F 23.0 °F 65% 30.00 in 10.0 mi NW 12.7 mph - N/A   Mostly Cloudy
2:55 PM 32.0 °F 23.0 °F 21.2 °F 64% 30.01 in 10.0 mi NW 11.5 mph - N/A   Mostly Cloudy
3:15 PM 33.8 °F 23.9 °F 21.2 °F 60% 30.00 in 10.0 mi NW 15.0 mph - N/A   Overcast
3:36 PM 33.8 °F 27.0 °F 21.2 °F 60% 30.01 in 10.0 mi NW 8.1 mph - N/A   Overcast
3:55 PM 33.8 °F 28.6 °F 21.2 °F 60% 30.01 in 10.0 mi NW 5.8 mph - N/A   Overcast
4:15 PM 33.8 °F 30.8 °F 23.0 °F 65% 30.01 in 10.0 mi WNW 3.5 mph - N/A   Overcast
4:35 PM 33.8 °F - 23.0 °F 65% 30.01 in 10.0 mi Calm Calm - N/A   Overcast
4:55 PM 33.8 °F 25.8 °F 21.2 °F 60% 30.01 in 10.0 mi WNW 10.4 mph - N/A   Overcast
5:15 PM 33.8 °F 23.2 °F 21.2 °F 60% 30.03 in 10.0 mi NW 17.3 mph - N/A   Overcast
5:35 PM 32.0 °F 20.1 °F 21.2 °F 64% 30.04 in 10.0 mi NW 19.6 mph - N/A   Overcast
5:55 PM 30.2 °F 18.1 °F 19.4 °F 64% 30.05 in 10.0 mi NNW 18.4 mph - N/A   Overcast
6:15 PM 30.2 °F 18.9 °F 19.4 °F 64% 30.06 in 10.0 mi NW 16.1 mph - N/A   Overcast
6:35 PM 30.2 °F 18.9 °F 19.4 °F 64% 30.08 in 10.0 mi NW 16.1 mph - N/A   Overcast
6:55 PM 30.2 °F 18.9 °F 17.6 °F 60% 30.08 in 10.0 mi NNW 16.1 mph - N/A   Overcast
7:15 PM 28.4 °F 18.0 °F 17.6 °F 64% 30.08 in 10.0 mi NNW 12.7 mph - N/A   Overcast
7:35 PM 28.4 °F 17.5 °F 15.8 °F 59% 30.09 in 10.0 mi NNW 13.8 mph - N/A   Overcast
7:55 PM 28.4 °F 19.1 °F 15.8 °F 59% 30.10 in 10.0 mi NNW 10.4 mph - N/A   Overcast
8:15 PM 26.6 °F 16.2 °F 15.8 °F 64% 30.10 in 10.0 mi NNW 11.5 mph 16.1 mph N/A   Overcast
8:35 PM 28.4 °F 19.7 °F 17.6 °F 64% 30.11 in 10.0 mi North 9.2 mph - N/A   Overcast
8:55 PM 26.6 °F 16.8 °F 15.8 °F 64% 30.12 in 10.0 mi North 10.4 mph - N/A   Overcast
9:15 PM 26.6 °F 19.1 °F 15.8 °F 64% 30.13 in 10.0 mi NW 6.9 mph - N/A   Overcast
9:35 PM 26.6 °F 15.2 °F 15.8 °F 64% 30.14 in 10.0 mi NNW 13.8 mph - N/A   Overcast
9:55 PM 26.6 °F 13.4 °F 12.2 °F 55% 30.15 in 10.0 mi NNW 18.4 mph 23.0 mph N/A   Overcast
10:15 PM 24.8 °F 11.5 °F 10.4 °F 54% 30.16 in 10.0 mi North 17.3 mph - N/A   Overcast
10:35 PM 24.8 °F 11.5 °F 10.4 °F 54% 30.18 in 10.0 mi North 17.3 mph - N/A   Overcast
10:55 PM 24.8 °F 12.9 °F 12.2 °F 59% 30.18 in 10.0 mi North 13.8 mph - N/A   Overcast
11:15 PM 24.8 °F 12.4 °F 12.2 °F 59% 30.19 in 10.0 mi North 15.0 mph - N/A   Overcast
11:35 PM 23.0 °F 9.2 °F 12.2 °F 63% 30.20 in 10.0 mi NNW 17.3 mph 20.7 mph N/A   Overcast
11:55 PM 21.2 °F 6.4 °F 10.4 °F 63% 30.22 in 10.0 mi NNW 18.4 mph - N/A   Overcast